Tracking 18840 objects as of 18-November-2017
HD Live streaming from Space Station
objects crossing your sky now

FENGYUN 1C DEB

Track FENGYUN 1C DEB now!
10-day predictions


NORAD ID: 37464
Int'l Code: 1999-025EJJ
Perigee: 763.9 km
Apogee: 1,520.7 km
Inclination: 102.7 °
Period: 108.0 minutes
Semi major axis: 7513 km
RCS: 0.0036 m2 (small)
Launch date: May 10, 1999
Source: People's Republic of China (PRC)
Launch site: Taiyaun Space Center, China (TSC)

Note: This is SATELLITE DEBRIS
aabbcc
Your satellite tracking list
Your tracking list is empty




NASA's NSSDC Master Catalog

Two Line Element Set (TLE):
1 37464U 99025EJJ 17312.84788659  .00001678  00000-0  17397-2 0  9999
2 37464 102.7082 178.3961 0503584   4.9724 355.6163 13.33081705472555
Source of the keplerian elements: AFSPC